This is the latest recevied weather packets stored in our database for station/object IR4UCA. If no packets are shown the sender has not sent any weather packets the latest 10 day(s).
| Time | Temp. | Humidity | Pressure | Rain* | Wind** | Luminosity | Snow |
|---|---|---|---|---|---|---|---|
| 1777483785 | 19.44° C | 64% | 1015.8 hPa | 0 mm | - | - | - |
| 1777483186 | 19.44° C | 64% | 1015.8 hPa | 0 mm | - | - | - |
| 1777482585 | 20° C | 63% | 1015.6 hPa | 0 mm | - | - | - |
| 1777481984 | 20.56° C | 63% | 1015.4 hPa | 0 mm | - | - | - |
| 1777481384 | 20.56° C | 63% | 1015.3 hPa | 0 mm | - | - | - |
| 1777480786 | 21.11° C | 61% | 1015.3 hPa | 0 mm | - | - | - |
| 1777480184 | 21.11° C | 61% | 1015.3 hPa | 0 mm | - | - | - |
| 1777479587 | 21.11° C | 60% | 1015.2 hPa | 0 mm | - | - | - |
| 1777478985 | 21.67° C | 60% | 1015.3 hPa | 0 mm | - | - | - |
| 1777478386 | 21.67° C | 61% | 1015.2 hPa | 0 mm | - | - | - |
| 1777477784 | 21.67° C | 61% | 1015.2 hPa | 0 mm | - | - | - |
| 1777477187 | 21.67° C | 60% | 1015.2 hPa | 0 mm | - | - | - |
| 1777476584 | 21.67° C | 60% | 1015.1 hPa | 0 mm | - | - | - |
| 1777475987 | 22.22° C | 57% | 1015 hPa | 0 mm | - | - | - |
| 1777475384 | 22.22° C | 56% | 1015.1 hPa | 0 mm | - | - | - |
| 1777474784 | 22.22° C | 58% | 1015.1 hPa | 0 mm | - | - | - |
| 1777474184 | 22.22° C | 57% | 1015.2 hPa | 0 mm | - | - | - |
| 1777472984 | 22.78° C | 59% | 1015.2 hPa | 0 mm | - | - | - |
| 1777472384 | 22.78° C | 60% | 1015.3 hPa | 0 mm | - | - | - |
| 1777471185 | 22.78° C | 60% | 1015.3 hPa | 0 mm | - | - | - |
| 1777470584 | 23.33° C | 57% | 1015.3 hPa | 0 mm | - | - | - |
| 1777469984 | 23.33° C | 56% | 1015.3 hPa | 0 mm | - | - | - |
| 1777469384 | 23.33° C | 55% | 1015.3 hPa | 0 mm | - | - | - |
| 1777468784 | 22.78° C | 56% | 1015.4 hPa | 0 mm | - | - | - |
| 1777468184 | 22.78° C | 58% | 1015.5 hPa | 0 mm | - | - | - |
* Rain latest hour (hover to see other rain measurements)
** Current wind speed in m/s (hover to see current wind gust speed)